Lapse_Rate
7.4 8.2 7.7 7.4 7.1 7.1 7.3 7.5 7.8 8.0 7.4 7.2 7.5 7.6 8.0 8.2 8.0 7.8 7.5 7.2 7.0 6.9 6.8 6.2 6.9 6.8 6.8 6.6 6.6 6.3 6.4 6.4 6.3 6.1 6.1 5.9 5.9 5.7 5.5 5.3 5.3 5.3 5.2 5.2
7.6 7.7 7.2 7.5 7.1 7.3 7.7 7.8 8.0 7.7 7.3 7.0 7.6 7.8 8.1 7.6 7.3 7.0 6.9 6.7 6.8 7.1 7.0 6.9 6.7 6.7 6.6 6.5 6.5 6.4 6.4 6.1 6.1 5.7 5.7 5.6 5.2 5.1 5.1 4.9 4.8 4.9 4.9 5.2
7.4 6.9 7.2 6.9 7.2 7.0 7.5 7.3 7.1 7.0 7.0 7.6 7.6 8.9 8.5 7.6 7.3 6.9 6.8 6.8 6.5 6.7 6.5 6.5 6.6 6.4 6.4 6.5 6.3 6.3 6.1 6.1 6.1 6.0 5.4 5.4 5.4 5.4 5.1 4.8 4.6 4.7 5.0 5.3
7.0 7.0 7.0 6.8 7.0 6.5 7.4 7.0 6.5 6.8 7.0 7.9 7.5 8.8 8.6 8.0 7.7 7.1 6.8 6.7 6.4 6.5 6.5 6.6 6.5 6.5 6.6 6.6 6.3 6.1 5.9 5.7 5.5 5.7 5.8 5.8 5.8 5.7 5.3 4.6 4.5 4.7 4.6 4.1
7.0 6.7 6.6 6.9 6.4 6.9 6.7 7.0 6.4 6.6 6.7 7.1 7.7 7.8 9.6 7.9 7.8 7.5 7.1 6.7 6.5 7.0 6.9 6.7 6.5 6.4 6.3 6.2 6.1 6.0 5.7 5.6 5.6 5.5 5.8 5.7 5.8 5.8 5.7 5.5 5.3 5.3 5.0 4.5
6.7 7.1 6.5 6.4 6.6 6.8 7.0 6.8 7.4 7.1 6.9 7.6 8.0 7.7 8.8 9.1 7.9 7.3 7.1 6.6 6.3 6.3 6.5 6.3 5.9 5.7 6.1 5.9 5.7 5.6 5.5 5.6 5.5 5.5 5.6 5.5 5.4 5.6 5.6 5.4 5.2 5.3 5.1 5.0
6.8 6.4 6.0 6.4 6.3 6.3 6.6 6.9 7.6 7.9 8.1 8.5 7.5 7.3 8.3 8.4 7.5 7.1 6.7 6.3 6.0 5.6 5.4 5.3 5.2 5.1 5.1 5.4 5.2 5.3 5.3 5.3 5.3 5.0 5.1 5.3 5.5 5.6 5.6 5.4 5.2 5.1 4.8 4.9
7.1 7.1 6.2 6.1 5.8 5.7 6.1 6.3 6.8 6.5 7.7 7.7 7.5 7.8 8.6 8.0 7.4 7.0 6.3 5.8 5.5 5.5 5.2 5.1 5.0 4.9 5.0 5.3 5.3 5.5 5.4 5.3 5.3 5.2 5.1 5.4 5.5 5.6 5.3 5.3 5.4 5.5 5.5 5.3
6.3 7.0 6.1 6.1 6.0 6.0 6.3 6.5 6.0 6.0 6.1 5.7 6.6 7.7 7.6 8.1 7.8 7.3 6.5 6.2 6.1 5.5 5.3 5.2 5.0 4.8 4.9 4.7 4.8 5.3 5.2 5.4 5.2 5.1 5.1 5.3 5.4 5.0 5.1 5.2 5.7 5.9 5.7 5.5
5.2 5.7 6.1 5.6 5.8 5.8 6.1 6.0 6.1 6.0 5.9 6.6 7.7 7.7 7.9 8.4 8.7 8.4 7.4 6.7 5.9 5.6 5.4 5.3 5.0 4.9 4.7 5.4 5.7 5.1 5.5 5.6 5.4 5.3 5.2 5.5 5.2 5.3 5.2 5.5 5.6 5.9 5.9 6.0
5.1 5.0 6.0 5.9 6.2 6.4 6.1 6.4 6.1 6.4 6.6 6.6 6.6 7.4 7.8 7.7 7.6 7.6 7.3 6.5 6.2 5.7 5.3 5.2 5.1 5.0 5.0 5.0 5.7 5.8 6.0 5.9 5.5 5.3 5.6 5.6 5.6 5.4 5.3 5.8 5.9 5.8 5.8 5.7
5.0 4.9 5.0 5.8 6.3 6.3 6.0 6.3 6.4 6.3 6.5 6.5 6.4 5.4 7.1 7.1 7.2 6.9 6.5 6.5 6.2 5.9 5.5 5.4 5.2 5.0 5.1 5.0 5.9 6.0 6.0 5.9 5.8 5.8 5.6 5.6 5.5 5.4 5.7 6.1 6.1 5.8 5.6 5.0
4.8 4.9 5.1 6.6 6.2 5.9 6.2 6.7 6.3 5.9 5.7 5.3 5.7 5.6 7.7 7.6 7.3 7.0 6.8 6.4 6.1 5.9 5.3 5.4 5.3 5.2 5.1 5.3 5.3 5.9 5.8 5.8 5.7 5.6 5.5 5.5 5.4 5.6 5.8 6.0 5.9 5.3 4.9 4.7
4.8 4.6 4.9 5.4 5.9 5.9 5.9 6.3 7.0 6.6 6.1 5.9 6.0 6.2 6.5 6.9 6.7 6.4 6.3 5.9 5.9 5.5 5.5 5.5 5.3 5.3 5.6 5.7 5.4 5.8 5.6 5.5 5.3 5.5 5.6 5.5 5.5 5.6 5.8 5.7 5.2 4.8 4.7 4.5
4.6 4.4 5.2 5.3 5.6 5.7 5.8 5.8 6.5 6.4 6.5 6.5 6.1 6.5 6.4 6.4 6.5 6.3 5.8 5.6 5.6 5.5 5.5 5.2 5.5 5.2 5.7 5.8 5.6 5.4 5.5 5.1 5.3 5.3 5.5 5.4 5.4 5.6 5.5 5.0 4.9 4.8 4.6 4.5
4.9 4.7 4.7 4.5 5.0 5.4 5.3 5.7 5.8 5.8 6.3 6.4 6.5 6.3 6.7 6.4 6.0 5.7 5.2 5.5 5.3 5.3 5.2 5.6 5.8 5.6 5.4 5.6 5.5 5.4 5.1 5.0 5.0 5.0 5.4 5.5 5.3 5.2 5.0 4.9 4.8 4.7 4.6 4.7
4.9 4.9 4.5 4.2 4.8 4.6 4.5 6.0 6.3 5.9 6.6 6.9 6.7 6.6 6.3 6.0 5.7 5.4 5.3 5.4 5.1 5.3 4.9 5.5 5.6 5.6 5.4 5.2 5.2 5.1 5.0 4.7 5.0 5.2 5.4 5.3 5.2 5.0 5.0 4.9 4.8 4.7 4.8 5.0
5.0 4.9 4.6 4.3 4.6 5.1 6.5 7.0 6.5 6.3 6.6 6.8 6.7 6.6 6.0 5.5 5.3 5.5 6.1 5.2 5.6 5.3 5.0 5.3 5.4 5.2 5.2 5.0 5.0 5.2 5.4 5.3 5.3 5.4 5.4 5.1 5.0 5.0 4.8 4.7 4.8 4.9 5.1 5.4
6.0 5.4 5.2 5.0 5.3 5.1 5.2 6.5 6.1 6.2 5.8 6.1 6.1 5.6 5.7 6.5 5.7 5.8 5.7 5.8 5.6 5.6 5.3 5.2 5.2 5.3 5.1 5.1 5.7 5.7 5.6 5.4 5.3 5.2 5.0 5.1 5.0 4.9 4.7 4.8 4.9 5.2 5.3 5.8
5.8 5.7 5.1 5.1 4.9 4.9 6.2 6.5 6.1 6.0 6.2 5.9 6.1 6.0 5.7 5.7 5.6 5.2 5.0 5.4 5.3 5.2 5.3 5.1 5.3 5.4 5.6 5.7 5.8 5.8 5.4 5.2 5.1 5.0 5.1 5.1 5.0 4.7 4.8 5.0 5.1 5.3 5.6 6.2
5.7 5.9 5.8 5.8 5.4 5.0 6.1 6.4 6.5 6.1 6.3 5.8 6.1 6.1 5.8 5.5 5.6 5.5 5.3 5.8 5.6 5.3 5.4 5.6 5.6 5.4 5.5 5.7 5.8 5.3 5.3 5.0 5.3 5.0 5.0 4.9 4.9 4.9 5.0 5.1 5.4 5.7 6.1 6.7
6.0 6.0 5.9 6.0 5.8 6.0 6.5 6.8 6.6 6.5 6.1 6.1 5.8 5.8 5.6 5.5 5.6 5.5 5.4 5.9 5.7 5.6 5.5 5.4 5.5 5.1 5.4 5.5 5.4 5.2 4.7 4.9 5.0 5.0 5.1 5.0 5.0 5.1 5.1 5.3 5.7 6.2 6.5 6.8
5.5 6.2 6.3 6.4 6.3 6.6 7.0 6.8 6.2 6.2 5.8 5.7 5.7 5.4 5.6 5.7 5.4 5.6 5.7 5.8 5.8 5.6 5.3 5.4 5.5 5.6 5.4 5.4 5.3 5.1 5.2 5.1 5.1 5.1 5.0 5.0 5.2 5.2 5.3 5.6 6.1 6.5 6.7 6.7
5.4 6.0 5.9 6.0 5.5 6.2 6.0 6.4 6.4 6.1 6.2 5.7 5.9 5.8 5.9 5.7 5.9 5.8 5.9 5.7 5.5 5.4 5.4 5.5 5.4 5.5 5.4 5.4 5.3 5.2 5.2 5.2 5.2 5.1 5.2 5.4 5.4 5.5 5.8 6.2 6.6 6.6 6.6 6.5
5.7 5.8 6.0 5.4 5.8 6.5 6.1 6.3 6.1 6.1 6.0 5.8 5.7 5.7 5.9 6.0 6.4 6.3 5.9 5.6 5.5 5.4 5.4 5.5 5.6 5.6 5.4 5.3 5.3 5.3 5.3 5.3 5.2 5.3 5.4 5.5 5.6 5.7 6.2 6.7 7.0 6.9 6.6 6.1
5.8 6.1 6.1 6.2 6.2 6.1 5.5 6.0 6.1 6.1 5.9 5.7 5.6 5.8 6.3 5.5 6.1 5.9 5.7 5.3 5.4 5.7 5.8 5.7 5.7 5.6 5.3 5.3 5.3 5.3 5.3 5.3 5.4 5.5 5.5 5.6 5.7 6.1 6.6 7.0 7.2 6.9 6.5 6.0
Wind_Speed
3 5 8 10 8 5 7 11 14 12 7 12 13 20 15 9 6 4 6 5 8 9 9 9 10 10 11 10 11 11 11 9 8 7 7 6 6 6 5 6 5 4 3 5
7 7 7 7 5 9 12 13 11 11 14 17 17 18 10 6 5 3 2 3 1 2 4 6 10 13 14 14 13 13 13 12 10 8 8 7 7 6 7 6 8 8 6 7
5 7 4 6 6 14 14 10 16 18 19 17 13 12 6 6 7 6 6 5 4 3 3 4 8 12 13 15 15 14 14 13 12 12 7 6 6 6 7 8 8 12 13 11
5 2 5 6 5 11 12 10 15 18 17 9 12 7 3 3 7 6 4 4 5 5 3 2 6 8 12 14 13 14 14 14 13 13 11 12 10 10 9 8 6 6 6 9
5 3 5 4 7 9 9 16 16 15 12 11 3 6 4 5 2 2 2 4 5 7 7 7 8 9 9 10 13 14 15 16 15 13 12 9 10 9 8 7 8 7 7 9
3 1 3 5 9 5 14 19 20 1 6 6 6 3 11 5 2 2 4 5 5 8 9 10 12 8 9 8 11 13 15 17 17 16 16 13 12 10 8 5 5 3 5 4
5 4 3 5 12 3 14 13 5 3 5 8 4 7 13 7 4 3 4 6 6 8 9 11 12 12 11 10 11 12 15 18 19 17 16 14 13 11 11 8 5 5 4 5
5 3 2 7 5 7 8 8 3 5 6 13 17 8 5 1 4 4 3 6 7 7 12 14 14 13 12 13 12 14 17 18 19 18 17 14 13 8 7 6 3 4 5 5
5 1 3 0 4 6 3 5 5 6 9 6 8 12 16 13 1 1 8 9 9 12 14 13 14 14 13 12 16 17 17 19 18 17 13 12 10 10 8 6 5 5 5 6
4 7 2 1 6 9 8 7 5 4 5 11 10 16 11 6 8 6 10 10 12 14 14 14 12 12 12 16 18 15 18 18 15 15 9 9 10 9 7 5 5 6 6 9
6 2 6 13 5 14 7 9 4 5 7 6 10 7 11 22 23 17 11 13 16 15 14 14 15 16 18 18 16 15 15 13 12 10 8 10 9 8 5 4 5 7 8 10
5 5 7 15 14 4 6 9 10 8 8 9 15 18 20 14 7 8 15 15 15 15 14 14 16 20 20 20 15 14 11 10 9 7 9 9 9 6 5 6 7 8 10 12
8 2 7 9 5 5 7 9 12 13 11 19 10 13 8 21 28 24 21 23 19 18 16 18 17 19 20 20 12 13 8 9 7 9 9 8 7 5 9 9 9 10 12 14
4 8 10 11 18 19 20 24 26 20 10 23 21 36 31 27 27 27 25 21 18 18 20 21 20 18 22 20 15 11 8 8 9 9 8 7 8 9 8 8 9 12 13 14
6 11 15 19 22 22 23 26 31 26 26 22 33 30 32 29 27 22 21 19 19 23 24 21 17 19 24 19 15 9 8 9 7 7 7 9 10 9 9 9 11 13 13 14
5 5 9 17 23 21 21 25 30 27 28 29 30 33 24 24 20 21 19 20 25 27 24 22 19 23 21 17 13 8 9 6 10 9 9 9 8 7 9 10 12 13 14 15
11 3 2 7 14 9 11 18 17 16 20 23 20 23 24 21 17 19 25 27 26 25 25 19 19 22 16 16 10 9 7 8 9 8 8 8 6 8 9 12 13 14 15 15
4 3 1 5 4 7 7 23 22 16 19 20 23 21 14 19 24 25 23 22 16 22 20 15 18 18 12 13 11 7 8 7 7 10 7 6 7 9 11 12 14 14 14 15
14 5 3 4 11 21 16 12 19 15 16 19 14 13 21 28 25 19 15 14 16 16 13 20 15 14 5 11 10 8 5 8 11 5 6 6 8 10 12 13 14 14 14 14
3 4 4 5 10 13 10 22 6 12 15 7 11 18 25 23 15 13 11 22 10 12 19 15 12 4 4 7 8 6 8 8 6 6 5 7 9 11 12 13 14 13 14 15
2 3 11 12 10 12 16 16 2 7 12 17 24 22 21 19 17 21 18 12 14 19 19 10 5 6 9 7 6 6 8 8 1 3 6 8 9 11 12 13 13 14 14 13
11 4 4 4 8 10 2 5 3 11 22 26 23 21 23 21 19 16 9 15 18 20 13 7 8 5 3 4 6 7 7 5 1 5 7 9 10 9 10 13 13 14 14 11
13 14 11 11 9 16 24 24 23 24 25 22 23 22 16 19 19 18 13 16 16 9 9 7 5 4 6 4 3 6 5 1 3 7 9 10 11 11 10 12 13 11 12 10
7 16 17 20 17 24 23 26 28 21 19 25 20 20 23 24 20 16 15 15 11 5 5 5 4 7 7 1 0 3 1 3 6 8 9 9 10 10 11 9 9 10 10 10
9 6 13 23 26 26 20 21 20 19 23 22 22 23 20 16 17 11 13 14 7 3 5 4 6 7 6 1 0 0 3 4 7 7 8 9 8 10 10 10 9 10 10 9
9 18 13 14 26 21 28 21 23 19 18 23 24 22 21 16 13 10 11 8 3 5 4 6 7 6 3 1 2 3 4 5 7 8 7 7 7 8 9 9 10 11 12 16
Wind_Direction
343 295 21 11 10 336 298 300 306 344 3 318 302 298 302 322 331 328 295 272 264 265 265 206 204 223 229 223 225 222 215 206 212 209 216 214 222 216 224 220 200 196 204 197
228 63 21 337 332 322 301 316 344 319 333 314 295 299 289 65 58 62 71 115 58 296 256 215 220 218 227 234 223 226 223 210 218 223 229 242 231 222 238 224 199 239 227 249
331 48 334 317 348 345 331 346 337 322 322 289 321 257 166 129 118 123 110 100 109 35 337 229 235 234 229 232 238 233 232 232 218 245 229 224 245 255 234 233 232 215 225 251
28 46 331 311 352 340 306 353 322 317 330 323 343 310 150 111 108 133 90 38 23 11 350 286 289 259 239 244 236 243 242 237 232 225 244 234 240 240 235 237 241 267 271 238
79 331 329 304 349 333 309 324 302 288 302 312 144 267 199 124 201 131 172 359 350 342 346 325 313 304 270 241 230 233 239 242 239 231 219 249 231 254 260 265 262 270 272 269
8 9 304 352 310 317 304 309 298 198 246 261 227 286 285 160 41 285 317 330 328 320 322 318 318 294 287 254 238 238 240 245 239 240 230 232 250 253 263 279 275 279 280 308
229 157 120 329 313 242 330 333 322 307 226 284 122 277 255 291 191 259 312 309 322 340 319 317 317 314 305 266 248 239 243 247 247 236 235 236 243 253 256 253 244 281 305 287
319 209 337 20 21 316 313 327 322 294 307 304 304 254 208 247 169 216 244 277 258 281 346 329 324 323 309 297 266 265 249 249 248 244 234 235 243 237 232 229 220 244 255 277
331 356 134 186 325 304 27 286 1 270 264 270 262 266 255 261 177 123 249 298 336 343 311 315 325 322 311 285 283 281 272 266 250 248 240 230 216 216 204 181 211 252 276 280
49 294 66 3 269 224 272 350 258 199 293 301 295 309 286 246 247 313 305 356 321 303 328 328 324 321 317 312 305 286 287 270 259 251 223 215 204 200 199 204 234 259 280 281
345 257 316 320 199 326 279 262 228 275 279 284 298 267 323 307 309 312 323 301 315 331 335 331 325 324 320 313 302 295 287 279 263 237 188 209 199 197 203 221 259 273 293 291
41 297 288 287 293 311 270 274 273 281 288 285 294 287 278 274 300 297 283 306 337 334 331 326 333 327 322 317 309 295 278 268 248 190 188 197 202 194 217 242 275 287 287 289
354 272 309 318 168 199 285 295 270 262 276 260 272 272 287 305 313 308 325 325 328 334 326 324 328 326 332 318 311 296 267 247 196 195 186 200 201 224 262 264 274 286 287 286
314 258 252 275 294 305 300 295 290 289 278 276 259 277 285 294 306 316 317 325 331 329 331 322 325 330 326 316 313 292 250 219 200 200 206 230 251 248 253 272 283 284 288 289
234 263 269 275 285 294 287 282 281 284 278 274 281 280 293 302 308 321 326 327 333 327 321 326 333 322 315 312 308 269 239 211 223 234 255 272 253 252 264 275 287 293 293 291
274 269 291 281 288 279 278 278 280 281 277 275 282 289 298 305 318 330 340 329 323 314 318 327 322 316 307 314 303 259 237 235 253 268 267 259 266 263 274 291 294 295 297 295
263 196 240 270 289 336 288 256 262 264 275 281 286 293 317 317 344 340 331 318 318 324 322 320 313 309 309 312 296 260 271 276 283 284 275 265 258 273 291 295 299 299 300 300
207 137 245 279 261 244 263 319 304 299 297 299 300 302 345 336 323 321 322 316 348 322 316 311 302 294 315 308 298 313 302 290 291 265 270 253 266 286 294 302 301 305 306 302
239 181 239 260 263 286 292 268 335 319 304 291 301 339 332 327 321 310 311 342 308 311 302 299 302 306 320 300 318 309 303 268 265 265 261 280 292 299 303 305 308 308 306 305
318 9 188 264 278 290 303 310 342 307 294 23 321 315 320 314 309 317 328 332 340 295 294 316 316 314 297 277 262 224 242 279 281 260 292 295 300 303 307 311 310 307 307 311
231 244 233 246 265 264 277 300 343 286 313 323 311 313 319 315 314 320 330 328 305 302 312 336 323 284 268 237 254 274 272 263 349 282 290 299 306 313 314 307 305 312 316 312
281 259 213 226 236 277 261 282 288 276 305 304 315 320 319 316 314 313 333 307 308 309 327 314 283 275 263 265 275 278 278 61 5 298 304 309 315 317 311 310 313 318 312 308
270 245 261 241 259 282 305 308 307 306 302 333 311 314 323 305 313 310 297 317 313 326 331 290 273 281 279 306 290 281 47 11 310 304 310 315 317 311 317 314 318 314 316 325
247 251 258 269 270 275 295 300 292 311 316 314 316 314 321 317 310 307 313 313 323 349 291 276 291 292 315 311 271 350 70 324 313 314 319 316 312 325 311 322 318 319 326 316
260 243 257 269 275 291 279 280 311 310 296 320 324 317 314 309 313 299 311 317 346 306 284 300 299 311 306 108 176 80 337 323 311 320 311 308 320 319 320 321 323 320 318 329
230 252 259 270 282 284 295 305 318 318 324 322 316 324 319 318 315 318 323 341 304 279 282 286 306 317 303 260 265 299 316 322 327 316 315 327 313 321 319 322 322 327 332 325